Weather History for KBFF - January, 2013

Change the Weather History Date:

Sunday, January 13, 2013

  Actual Average Record
Temperature  
Mean Temperature 6 °F 27 °F  
Max Temperature 16 °F 41 °F 66 °F (1902)
Min Temperature -4 °F 14 °F -29 °F (1905)
Degree Days  
Heating Degree Days 59 38  
Month to date heating degree days 508 499  
Since 1 July heating degree days 2932 3271  
Cooling Degree Days 0 0  
Month to date cooling degree days 0 0  
Year to date cooling degree days 0 0  
Moisture  
Dew Point -1 °F    
Average Humidity 77    
Maximum Humidity 95    
Minimum Humidity 59    
Precipitation  
Precipitation T in 0.01 in 0.09 in (1957)
Month to date precipitation 0.10 0.17  
Year to date precipitation 0.10 0.17  
Snow  
Snow T in 0.10 in 2.40 in (1957)
Month to date snowfall 1.7 2.3  
Since 1 July snowfall 15.5 18.3  
Snow Depth 2.00 in    
Sea Level Pressure  
Sea Level Pressure 30.31 in    
Wind  
Wind Speed 7 mph (NW)    
Max Wind Speed 13 mph    
Max Gust Speed 16 mph    
Visibility 10 miles    
Events Snow    
T = Trace of Precipitation, MM = Missing Value Source: NWS Daily Summary

Daily Weather History Graph

Daily Weather History Graph

Search for Another Location

Airport or City:

Trip Planner

Search our weather history database for the weather conditions in past years. The results will help you decide how hot, cold, wet, or windy it might be!

Date:

Astronomy

Jan. 13, 2013 Rise Set
Actual Time 7:20 AM MST 4:46 PM MST
Civil Twilight 6:49 AM MST 5:17 PM MST
Nautical Twilight 6:14 AM MST 5:51 PM MST
Astronomical Twilight 5:41 AM MST 6:25 PM MST
Moon 8:17 AM MST (1/13) 7:30 PM MST (1/13)
Length of Visible Light 10h 28m
Length of Day
9h 26m
Waxing Crescent, 5% of the Moon is Illuminated
Jan 13
Waxing Crescent
Jan 18
First Quarter
Jan 26
Full
Feb 3
Last Quarter
Feb 10
New

Hourly Weather History & Observations

Time (MST) Temp. Windchill Dew Point Humidity Pressure Visibility Wind Dir Wind Speed Gust Speed Precip Events Conditions
12:53 AM 1.9 °F -10.6 °F -2.0 °F 83% 30.28 in 7.0 mi NW 6.9 mph - 0.00 in   Overcast
1:02 AM 1.4 °F -11.3 °F -2.2 °F 85% 30.06 in 6.0 mi NW 6.9 mph - N/A   Overcast
1:37 AM 1.4 °F -9.9 °F -0.4 °F 92% 30.07 in 10.0 mi NW 5.8 mph - N/A   Overcast
1:53 AM 1.9 °F -10.6 °F -0.9 °F 88% 30.29 in 10.0 mi NW 6.9 mph - N/A   Mostly Cloudy
2:53 AM 3.0 °F -9.3 °F -0.0 °F 87% 30.29 in 4.0 mi WNW 6.9 mph - 0.00 in Snow Light Snow
3:53 AM 1.9 °F -10.6 °F -0.9 °F 88% 30.27 in 8.0 mi NW 6.9 mph - 0.00 in   Overcast
4:53 AM 1.0 °F -10.3 °F -2.0 °F 87% 30.29 in 9.0 mi NW 5.8 mph - N/A   Overcast
5:53 AM 1.0 °F -11.7 °F -2.0 °F 87% 30.32 in 10.0 mi WNW 6.9 mph - N/A   Overcast
6:53 AM -0.0 °F -7.9 °F -4.0 °F 83% 30.35 in 10.0 mi NW 3.5 mph - N/A   Clear
7:53 AM -0.0 °F -11.6 °F -4.0 °F 83% 30.37 in 10.0 mi NW 5.8 mph - N/A   Clear
8:53 AM 3.0 °F -10.5 °F -0.9 °F 84% 30.38 in 10.0 mi NW 8.1 mph - N/A   Clear
9:53 AM 6.1 °F -5.6 °F 1.0 °F 80% 30.37 in 10.0 mi WNW 6.9 mph - N/A   Clear
10:53 AM 9.0 °F -4.2 °F 1.9 °F 73% 30.34 in 10.0 mi WNW 9.2 mph - N/A   Clear
11:53 AM 10.9 °F -1.8 °F 3.0 °F 70% 30.31 in 10.0 mi WNW 9.2 mph - N/A   Clear
12:53 PM 14.0 °F 2.0 °F 3.9 °F 64% 30.30 in 10.0 mi WNW 9.2 mph - N/A   Clear
1:53 PM 16.0 °F 2.9 °F 3.9 °F 59% 30.29 in 10.0 mi NW 11.5 mph - N/A   Clear
2:53 PM 15.1 °F 1.8 °F 3.0 °F 59% 30.32 in 10.0 mi West 11.5 mph - N/A   Mostly Cloudy
3:05 PM 15.8 °F 3.4 °F 3.2 °F 58% 30.11 in 10.0 mi WNW 10.4 mph - N/A   Overcast
3:53 PM 14.0 °F 1.2 °F 3.9 °F 64% 30.34 in 10.0 mi NW 10.4 mph - N/A   Overcast
4:53 PM 6.1 °F -4.3 °F -0.9 °F 73% 30.36 in 10.0 mi NNW 5.8 mph - N/A   Clear
5:53 PM 5.0 °F - -0.9 °F 76% 30.38 in 10.0 mi Calm Calm - N/A   Mostly Cloudy
6:53 PM 6.1 °F - -0.0 °F 76% 30.39 in 10.0 mi Calm Calm - N/A   Overcast
7:53 PM 3.0 °F -4.4 °F -2.0 °F 80% 30.40 in 10.0 mi NNW 3.5 mph - N/A   Overcast
8:53 PM 3.0 °F -6.4 °F -2.0 °F 80% 30.40 in 10.0 mi NW 4.6 mph - N/A   Partly Cloudy
9:53 PM 1.0 °F -10.3 °F -4.0 °F 79% 30.40 in 10.0 mi NNW 5.8 mph - N/A   Partly Cloudy
10:53 PM -2.2 °F -15.6 °F -7.6 °F 78% 30.15 in 10.0 mi North 6.9 mph - N/A   Clear
11:53 PM -2.9 °F -13.3 °F -6.0 °F 87% 30.41 in 10.0 mi NW 4.6 mph - N/A   Clear